This is the latest recevied weather packets stored in our database for station/object W9KHP-1. If no packets are shown the sender has not sent any weather packets the latest 10 day(s).
| Time | Temp. | Humidity | Pressure | Rain* | Wind** | Luminosity | Snow |
|---|---|---|---|---|---|---|---|
| 1777741380 | 8.33° C | 92% | 1021.4 hPa | 0 mm | - | 66 W/m² | - |
| 1777741077 | 8.89° C | 92% | 1021.5 hPa | 1.27 mm | - | 77 W/m² | - |
| 1777740774 | 8.89° C | 91% | 1021.4 hPa | 1.27 mm | - | 70 W/m² | - |
| 1777740470 | 8.89° C | 90% | 1021.3 hPa | 0 mm | - | 65 W/m² | - |
| 1777740168 | 9.44° C | 90% | 1021.2 hPa | 0 mm | - | 89 W/m² | - |
| 1777739863 | 8.89° C | 90% | 1021.3 hPa | 0 mm | - | 105 W/m² | - |
| 1777739561 | 8.89° C | 90% | 1021.3 hPa | 0 mm | - | 101 W/m² | - |
| 1777739258 | 8.89° C | 91% | 1021.4 hPa | 0 mm | - | 138 W/m² | - |
| 1777738954 | 8.89° C | 91% | 1021.5 hPa | 0 mm | - | 120 W/m² | - |
| 1777738651 | 8.89° C | 90% | 1021.4 hPa | 0 mm | - | 92 W/m² | - |
| 1777738347 | 8.89° C | 88% | 1021.6 hPa | 0 mm | - | 74 W/m² | - |
| 1777738046 | 8.89° C | 87% | 1021.4 hPa | 0 mm | - | 83 W/m² | - |
| 1777737745 | 8.89° C | 87% | 1021.4 hPa | 0 mm | - | 92 W/m² | - |
| 1777737443 | 9.44° C | 88% | 1021.4 hPa | 0 mm | - | 106 W/m² | - |
| 1777737135 | 9.44° C | 87% | 1021.4 hPa | 0 mm | - | 102 W/m² | - |
| 1777736830 | 9.44° C | 86% | 1021.5 hPa | 0 mm | - | 114 W/m² | - |
| 1777736211 | 9.44° C | 85% | 1021.4 hPa | 0 mm | - | 156 W/m² | - |
| 1777735908 | 9.44° C | 87% | 1021.3 hPa | 0 mm | - | 163 W/m² | - |
| 1777735606 | 8.89° C | 86% | 1021.1 hPa | 0 mm | - | 139 W/m² | - |
| 1777735303 | 8.89° C | 86% | 1021.2 hPa | 0 mm | - | 80 W/m² | - |
| 1777735000 | 8.89° C | 86% | 1021.1 hPa | 0 mm | - | 110 W/m² | - |
| 1777734697 | 8.89° C | 86% | 1021.1 hPa | 0 mm | - | 95 W/m² | - |
| 1777734395 | 8.89° C | 87% | 1021.1 hPa | 0 mm | - | 68 W/m² | - |
| 1777734091 | 8.89° C | 86% | 1021.1 hPa | 0 mm | - | 83 W/m² | - |
| 1777733788 | 9.44° C | 87% | 1021.1 hPa | 0 mm | - | 114 W/m² | - |
* Rain latest hour (hover to see other rain measurements)
** Current wind speed in m/s (hover to see current wind gust speed)